Back to catalog

COSMOS 2251 DEB

AliveLEO
NORAD 40810·DEBRIS·🇷🇺 Russia

Launched Jun 16, 1993 from Plesetsk Cosmodrome

Loading…

Next Passes (next 24 hours)

TLE

FreshSource: Space-Track

Epoch: Sep 13, 2026, 10:49 UTC

1 40810U 93036BWP 26256.45120587  .00001661  00000-0  34990-3 0  9999
2 40810  74.0323 270.8513 0018922 340.9439  19.1016 14.60193261656912

Track COSMOS 2251 DEB in real time with AllMySat

Download on the App Store